Fort Riley, KS

4:04 AM CST on December 09, 2016 (GMT -0600)
Marshall Army Air Field

Weather History for KFRI - February, 2014

Change the Weather History Date:

Friday, February 28, 2014

  Actual Average (KMHK) Record (KMHK)
Temperature  
Mean Temperature 37 °F -  
Max Temperature 49 °F 44 °F 82 °F (2006)
Min Temperature 25 °F 22 °F 8 °F (2015)
Degree Days  
Heating Degree Days 28    
Moisture  
Dew Point 21 °F    
Average Humidity 54    
Maximum Humidity 77    
Minimum Humidity 39    
Precipitation  
Precipitation 0.00 in - - ()
Sea Level Pressure  
Sea Level Pressure 29.86 in    
Wind  
Wind Speed 10 mph (ESE)    
Max Wind Speed 21 mph    
Max Gust Speed 25 mph    
Visibility 10 miles    
Events      
Averages and records for this station are not official NWS values.
T = Trace of Precipitation, MM = Missing Value Source: NWS Daily Summary

Daily Weather History Graph

Daily Weather History Graph

Search for Another Location

Airport or City:

Trip Planner

Search our weather history database for the weather conditions in past years. The results will help you decide how hot, cold, wet, or windy it might be!

Date:

Astronomy

Feb. 28, 2014 Rise Set
Actual Time 7:00 AM CST 6:18 PM CST
Civil Twilight 6:34 AM CST 6:45 PM CST
Nautical Twilight 6:03 AM CST 7:16 PM CST
Astronomical Twilight 5:32 AM CST 7:47 PM CST
Moon 6:16 AM CST (2/28) 5:56 PM CST (2/28)
Length of Visible Light 12h 11m
Length of Day
11h 17m
Waning Crescent, 1% of the Moon is Illuminated
Feb 28
Waning Crescent
Mar 1
New
Mar 8
First Quarter
Mar 16
Full
Mar 23
Last Quarter

Hourly Weather History & Observations

Time (CST) Temp. Windchill Dew Point Humidity Pressure Visibility Wind Dir Wind Speed Gust Speed Precip Events Conditions
12:58 AM 26.8 °F 15.4 °F 5.0 °F 40% 29.84 in 10.0 mi East 13.8 mph 21.9 mph N/A   Partly Cloudy
1:58 AM 27.0 °F 18.7 °F 4.6 °F 39% 29.83 in 10.0 mi East 8.1 mph 17.3 mph N/A   Clear
2:58 AM 27.0 °F 19.5 °F 6.1 °F 41% 29.80 in 10.0 mi East 6.9 mph - N/A   Scattered Clouds
3:58 AM 27.1 °F 20.7 °F 7.5 °F 44% 29.79 in 10.0 mi East 5.8 mph - N/A   Overcast
4:58 AM 25.7 °F 18.0 °F 9.0 °F 49% 29.77 in 10.0 mi East 6.9 mph - N/A   Scattered Clouds
5:58 AM 25.7 °F 18.0 °F 10.6 °F 53% 29.76 in 10.0 mi ENE 6.9 mph - N/A   Clear
6:58 AM 25.3 °F 16.0 °F 11.1 °F 55% 29.76 in 10.0 mi East 9.2 mph - N/A   Partly Cloudy
7:58 AM 28.6 °F 20.7 °F 13.3 °F 53% 29.78 in 10.0 mi SE 8.1 mph - N/A   Mostly Cloudy
8:58 AM 35.1 °F 28.6 °F 16.3 °F 47% 29.79 in 10.0 mi SSE 8.1 mph 18.4 mph N/A   Mostly Cloudy
9:58 AM 42.3 °F 36.8 °F 19.4 °F 40% 29.79 in 10.0 mi SSE 9.2 mph - N/A   Scattered Clouds
10:58 AM 46.2 °F 40.8 °F 22.8 °F 40% 29.80 in 10.0 mi South 11.5 mph - N/A   Clear
11:58 AM 49.5 °F - 28.6 °F 45% 29.79 in 10.0 mi SSE 12.7 mph - N/A   Overcast
12:58 PM 49.1 °F - 31.8 °F 51% 29.78 in 10.0 mi South 13.8 mph - N/A   Overcast
1:08 PM 48.2 °F - 32.0 °F 54% 29.76 in 10.0 mi South 16.1 mph - N/A   Overcast
1:58 PM 48.7 °F - 32.5 °F 54% 29.80 in 10.0 mi South 5.8 mph - N/A   Overcast
2:08 PM 48.2 °F - 32.0 °F 54% 29.79 in 10.0 mi South 6.9 mph - N/A   Overcast
2:58 PM 46.9 °F - 33.1 °F 59% 29.83 in 10.0 mi SSW 8.1 mph - N/A   Overcast
3:58 PM 48.2 °F - 33.4 °F 57% 29.82 in 10.0 mi South 6.9 mph - N/A   Overcast
4:58 PM 48.6 °F - 33.6 °F 56% 29.83 in 10.0 mi East 2.3 mph - N/A   Overcast
5:58 PM 46.4 °F 45.2 °F 33.4 °F 61% 29.87 in 10.0 mi SE 3.5 mph - N/A   Overcast
6:58 PM 44.4 °F - 33.3 °F 65% 29.89 in 10.0 mi SSE 2.3 mph - N/A   Overcast
7:58 PM 39.7 °F 31.5 °F 20.3 °F 46% 29.94 in 10.0 mi North 15.0 mph 25.3 mph N/A   Mostly Cloudy
8:58 PM 36.7 °F 26.0 °F 20.7 °F 52% 29.99 in 10.0 mi NNE 20.7 mph - N/A   Overcast
9:58 PM 31.5 °F 19.8 °F 22.1 °F 68% 30.06 in 10.0 mi North 18.4 mph 21.9 mph N/A   Overcast
10:58 PM 29.1 °F 17.9 °F 20.7 °F 71% 30.08 in 10.0 mi North 15.0 mph 20.7 mph N/A   Overcast
11:43 PM 26.6 °F 15.7 °F 19.4 °F 74% 30.08 in 10.0 mi NNE 12.7 mph 20.7 mph N/A   Mostly Cloudy
11:58 PM 26.4 °F 15.5 °F 19.9 °F 77% 30.10 in 10.0 mi NNE 12.7 mph - N/A   Mostly Cloudy